Location: Trebic
(49.2170°N, 15.8830°E)
Time: 02:15:59
(UTC+02:00)

Transit 4A - Pass Details

Date: 30 August 2019
Orbit: 867 x 978 km, 66.8° (Epoch: 23 October)

Event Time Altitude Azimuth Distance (km) Brightness Sun altitude
Rises 17:34:39 0° 212° (SSW) 3,661 11.6 20.2°
Reaches altitude 10° 17:37:12 10° 212° (SSW) 2,720 11.1 19.8°
Maximum altitude 17:43:36 87° 125° (SE) 983 8.4 18.7°
Drops below altitude 10° 17:49:59 10° 36° (NE) 2,713 10.0 17.7°
Sets 17:52:32 0° 37° (NE) 3,651 10.6 17.3°
